TimeCDT,TemperatureF,Dew PointF,Humidity,Sea Level PressureIn,VisibilityMPH,Wind Direction,Wind SpeedMPH,Gust SpeedMPH,PrecipitationIn,Events,Conditions,WindDirDegrees,DateUTC
12:54 AM,53.1,34.0,48,29.98,10.0,SSE,11.5,19.6,N/A,,Clear,150,2013-04-06 05:54:00
1:54 AM,52.0,35.1,53,29.97,10.0,SE,12.7,-,N/A,,Clear,140,2013-04-06 06:54:00
2:54 AM,51.1,35.1,54,29.94,10.0,SE,12.7,-,N/A,,Clear,140,2013-04-06 07:54:00
3:54 AM,52.0,35.1,53,29.93,10.0,SSE,11.5,-,N/A,,Clear,150,2013-04-06 08:54:00
4:54 AM,50.0,36.0,59,29.91,10.0,SE,10.4,-,N/A,,Clear,140,2013-04-06 09:54:00
5:54 AM,50.0,36.0,59,29.91,10.0,SSE,9.2,-,N/A,,Clear,150,2013-04-06 10:54:00
6:54 AM,51.1,36.0,56,29.90,10.0,SSE,11.5,-,N/A,,Clear,160,2013-04-06 11:54:00
7:54 AM,54.0,35.1,49,29.90,10.0,South,11.5,-,N/A,,Clear,170,2013-04-06 12:54:00
8:54 AM,55.9,35.1,45,29.86,10.0,South,18.4,25.3,N/A,,Clear,170,2013-04-06 13:54:00
9:54 AM,59.0,35.1,41,29.83,10.0,South,17.3,25.3,N/A,,Clear,180,2013-04-06 14:54:00
10:54 AM,64.0,35.1,34,29.77,10.0,South,19.6,34.5,N/A,,Clear,170,2013-04-06 15:54:00
11:54 AM,66.0,37.9,36,29.77,10.0,South,15.0,24.2,N/A,,Mostly Cloudy,180,2013-04-06 16:54:00
12:54 PM,66.0,37.9,36,29.74,10.0,SSW,18.4,31.1,N/A,,Scattered Clouds,200,2013-04-06 17:54:00
1:54 PM,70.0,39.0,32,29.70,10.0,SSW,24.2,32.2,N/A,,Clear,200,2013-04-06 18:54:00
2:54 PM,72.0,39.0,30,29.67,10.0,SSW,25.3,36.8,N/A,,Partly Cloudy,210,2013-04-06 19:54:00
3:54 PM,70.0,41.0,35,29.67,10.0,SW,17.3,34.5,N/A,,Clear,220,2013-04-06 20:54:00
4:54 PM,68.0,41.0,37,29.66,10.0,SW,17.3,28.8,N/A,,Clear,220,2013-04-06 21:54:00
5:54 PM,71.1,43.0,36,29.66,10.0,SW,16.1,31.1,N/A,,Mostly Cloudy,220,2013-04-06 22:54:00
6:54 PM,69.1,44.1,40,29.67,10.0,SW,13.8,24.2,N/A,,Overcast,230,2013-04-06 23:54:00
7:54 PM,66.9,46.9,49,29.67,10.0,SW,13.8,21.9,N/A,,Mostly Cloudy,230,2013-04-07 00:54:00
8:54 PM,66.0,48.0,52,29.69,10.0,SW,13.8,21.9,N/A,,Overcast,230,2013-04-07 01:54:00
9:54 PM,64.9,48.0,54,29.73,10.0,West,10.4,-,N/A,,Overcast,260,2013-04-07 02:54:00
10:54 PM,62.1,42.1,48,29.76,5.0,WNW,12.7,-,N/A,,Haze,290,2013-04-07 03:54:00
11:54 PM,57.0,42.1,57,29.77,4.0,West,5.8,-,N/A,,Haze,280,2013-04-07 04:54:00